Location: Unspecified
(40.9447°N, 78.9903°W)
Time: 02:07:08
(UTC-04:00)

Okean 3 - Pass Details

Date: 29 July 2021
Orbit: 574 x 601 km, 82.5° (Epoch: 19 September)

Event Time Altitude Azimuth Distance (km) Brightness Sun altitude
Rises 02:44:18 0° 344° (NNW) 2,850 7.7 -27.4°
Reaches altitude 10° 02:46:37 10° 337° (NNW) 1,939 6.6 -27.3°
Enters shadow 02:48:57 28° 316° (NW) 1,140 5.1 -27.1°
